EW2500 Weather Reports


Display with metric or nautical units.
time (UTC)temp
F
wind
direction
speed
MPH
gust
MPH
rain 1hr
in
rain 24hr
in
rain mn
in
humidity
%
barometer
mb
20180723172108 75 144 2.0 10.0 0.00 0.00 0.00 92 1019.4
20180723171556 75 288 2.0 10.0 0.00 0.00 0.00 92 1019.4
20180723171059 75 30 2.0 8.0 0.00 0.00 0.00 92 1019.4
20180723170606 75 172 3.0 6.0 0.00 0.00 0.00 92 1019.4
20180723170107 76 272 1.0 8.0 0.00 0.00 0.00 92 1019.3
20180723165614 76 226 2.0 8.0 0.00 0.00 0.00 92 1019.4
20180723165057 76 302 3.0 9.0 0.00 0.00 0.00 92 1019.4
20180723164605 76 82 4.0 10.0 0.00 0.00 0.00 92 1019.4
20180723164106 76 148 2.0 6.0 0.00 0.00 0.00 92 1019.4
20180723163612 75 76 2.0 9.0 0.00 0.00 0.00 92 1019.3
20180723163056 75 140 3.0 14.0 0.00 0.00 0.00 92 1019.4
20180723162604 75 142 4.0 14.0 0.00 0.00 0.00 92 1019.4
20180723162107 75 193 2.0 8.0 0.00 0.00 0.00 92 1019.4
20180723161614 75 205 2.0 9.0 0.00 0.00 0.00 92 1019.3
20180723161058 75 45 2.0 10.0 0.00 0.00 0.00 92 1019.4
20180723160604 75 175 2.0 10.0 0.00 0.00 0.00 93 1019.4
20180723160107 75 169 1.0 6.0 0.00 0.00 0.00 93 1019.4
20180723155612 74 342 2.0 6.0 0.00 0.00 0.00 93 1019.4
20180723155116 74 292 1.0 5.0 0.00 0.00 0.00 93 1019.4
20180723154602 74 270 1.0 7.0 0.00 0.00 0.00 94 1019.5
20180723154105 74 276 2.0 7.0 0.00 0.00 0.00 94 1019.5
20180723153615 74 258 1.0 5.0 0.00 0.00 0.00 94 1019.5
20180723153058 74 235 1.0 7.0 0.00 0.00 0.00 95 1019.5
20180723152607 74 97 1.0 8.0 0.00 0.00 0.00 95 1019.5
20180723152111 74 329 2.0 8.0 0.00 0.00 0.00 95 1019.4
20180723151557 74 223 1.0 10.0 0.00 0.00 0.00 95 1019.4
20180723151101 73 146 3.0 10.0 0.00 0.00 0.00 95 1019.5
20180723150601 73 288 2.0 6.0 0.00 0.00 0.00 96 1019.3
20180723150107 73 249 2.0 11.0 0.00 0.00 0.00 96 1019.3
20180723145553 73 195 2.0 10.0 0.00 0.00 0.00 96 1019.3
20180723145100 73 313 3.0 9.0 0.00 0.00 0.00 96 1019.3
20180723144609 73 284 2.0 6.0 0.00 0.00 0.00 96 1019.3
20180723144111 73 317 2.0 7.0 0.00 0.00 0.00 96 1019.3
20180723143600 73 221 1.0 8.0 0.00 0.00 0.00 96 1019.2
20180723143106 73 137 3.0 12.0 0.00 0.00 0.00 96 1019.1
20180723142553 73 227 2.0 12.0 0.00 0.00 0.00 96 1019.0
20180723142100 72 130 2.0 8.0 0.00 0.00 0.00 96 1019.0
20180723141607 72 192 3.0 10.0 0.00 0.00 0.00 96 1018.9
20180723141112 73 134 2.0 10.0 0.00 0.00 0.00 96 1018.7
20180723140601 73 30 2.0 7.0 0.00 0.00 0.00 96 1018.6
20180723140107 73 301 2.0 7.0 0.00 0.00 0.00 96 1018.6
20180723135604 72 263 2.0 7.0 0.00 0.00 0.00 96 1018.6
20180723135103 72 312 2.0 5.0 0.00 0.00 0.00 96 1018.5
20180723134608 72 188 2.0 10.0 0.00 0.00 0.00 96 1018.5
20180723134053 72 154 4.0 12.0 0.00 0.00 0.00 96 1018.7
20180723133601 72 126 4.0 13.0 0.00 0.00 0.00 96 1018.7
20180723133105 72 59 4.0 13.0 0.00 0.00 0.00 96 1018.6
20180723132611 72 355 2.0 9.0 0.00 0.00 0.00 96 1018.5
20180723132111 73 111 3.0 10.0 0.00 0.00 0.00 96 1018.5
20180723131558 72 174 3.0 10.0 0.00 0.00 0.00 96 1018.4
20180723131101 72 159 2.0 7.0 0.00 0.00 0.00 96 1018.2
20180723130606 72 347 2.0 7.0 0.00 0.00 0.00 96 1018.2
20180723130107 73 139 2.0 7.0 0.00 0.00 0.00 96 1018.1
20180723125556 73 114 1.0 7.0 0.00 0.00 0.00 96 1018.0
20180723125100 73 188 2.0 7.0 0.00 0.00 0.00 96 1018.1
20180723124606 73 38 3.0 11.0 0.00 0.00 0.00 96 1018.0
20180723124114 73 160 1.0 11.0 0.00 0.00 0.00 96 1018.0
20180723123602 73 196 2.0 6.0 0.00 0.00 0.00 96 1017.8
20180723123108 72 225 1.0 6.0 0.00 0.00 0.00 96 1017.7
20180723122554 72 360 2.0 4.0 0.00 0.00 0.00 96 1017.7
20180723122100 72 262 1.0 5.0 0.00 0.00 0.00 96 1017.9
20180723121608 72 67 1.0 5.0 0.00 0.00 0.00 96 1017.8
20180723121112 72 88 2.0 5.0 0.00 0.00 0.00 96 1017.9
20180723120559 72 26 1.0 6.0 0.00 0.00 0.00 96 1017.8
20180723120101 73 51 1.0 6.0 0.00 0.00 0.00 96 1017.9
20180723115608 72 278 1.0 5.0 0.00 0.00 0.00 96 1017.8
20180723115054 73 305 1.0 8.0 0.00 0.00 0.00 96 1017.7
20180723114602 72 293 2.0 8.0 0.00 0.00 0.00 96 1017.7
20180723114108 72 49 2.0 8.0 0.00 0.00 0.00 96 1017.7
20180723113556 72 225 2.0 10.0 0.00 0.00 0.00 96 1017.7
20180723113101 72 15 2.0 10.0 0.00 0.00 0.00 96 1017.7
20180723112608 73 153 2.0 9.0 0.00 0.00 0.00 96 1017.6
20180723112111 73 71 2.0 7.0 0.00 0.00 0.00 96 1017.6
20180723111558 73 124 2.0 7.0 0.00 0.00 0.00 96 1017.6
20180723111101 73 205 1.0 7.0 0.00 0.00 0.00 96 1017.5
20180723110604 73 337 1.0 7.0 0.00 0.00 0.00 96 1017.5
20180723110106 73 82 2.0 7.0 0.00 0.00 0.00 96 1017.4
20180723105612 73 256 1.0 7.0 0.00 0.00 0.00 96 1017.3
20180723105056 73 30 2.0 6.0 0.00 0.00 0.00 96 1017.4
20180723104607 73 5 1.0 6.0 0.00 0.00 0.00 96 1017.3
20180723104105 73 175 2.0 6.0 0.00 0.00 0.00 96 1017.3
20180723103613 73 344 1.0 8.0 0.00 0.00 0.00 96 1017.3
20180723103058 73 267 2.0 8.0 0.00 0.00 0.00 96 1017.2
20180723102606 73 23 2.0 7.0 0.00 0.00 0.00 96 1017.2
20180723102111 73 135 2.0 6.0 0.00 0.00 0.00 96 1017.2
20180723101559 73 146 2.0 7.0 0.00 0.00 0.00 96 1017.1
20180723101105 73 87 2.0 7.0 0.00 0.00 0.00 96 1017.2
20180723100555 73 45 1.0 7.0 0.00 0.00 0.00 96 1017.0
20180723095557 73 178 3.0 8.0 0.00 0.00 0.00 96 1017.0
20180723095101 73 57 2.0 5.0 0.00 0.00 0.00 96 1017.0
20180723094053 73 218 1.0 6.0 0.00 0.00 0.00 96 1016.9
20180723093600 73 94 1.0 6.0 0.00 0.00 0.00 96 1016.9
20180723093103 73 279 2.0 6.0 0.00 0.00 0.00 96 1016.9
20180723092613 73 227 2.0 5.0 0.00 0.00 0.00 96 1016.9
20180723092054 73 172 1.0 3.0 0.00 0.00 0.00 96 1016.8
20180723091603 73 118 0.0 6.0 0.00 0.00 0.00 96 1016.8
20180723091107 73 207 1.0 6.0 0.00 0.00 0.00 96 1016.8
20180723090555 73 228 1.0 5.0 0.00 0.00 0.00 96 1016.7
20180723090058 73 95 2.0 6.0 0.00 0.00 0.00 96 1016.5
20180723085604 73 23 2.0 8.0 0.00 0.00 0.00 96 1016.6
20180723085108 73 113 3.0 8.0 0.00 0.00 0.00 96 1016.6
20180723084614 73 291 1.0 5.0 0.00 0.00 0.00 96 1016.6
20180723084056 73 28 2.0 5.0 0.00 0.00 0.00 96 1016.5
20180723083604 73 74 1.0 8.0 0.00 0.00 0.00 96 1016.4
20180723083109 73 290 2.0 8.0 0.00 0.00 0.00 96 1016.4
20180723082556 73 5 3.0 8.0 0.00 0.00 0.00 96 1016.3
20180723082102 73 217 1.0 5.0 0.00 0.00 0.00 96 1016.4
20180723081612 73 123 1.0 5.0 0.00 0.00 0.00 96 1016.3
20180723081057 73 213 1.0 6.0 0.00 0.00 0.00 96 1016.3
20180723080605 73 278 2.0 6.0 0.00 0.00 0.00 96 1016.3
20180723080110 73 64 1.0 7.0 0.00 0.00 0.00 96 1016.3
20180723075557 73 281 2.0 7.0 0.00 0.00 0.00 96 1016.2
20180723075103 73 184 2.0 7.0 0.00 0.00 0.00 96 1016.3
20180723074552 73 117 2.0 7.0 0.00 0.00 0.00 96 1016.3
20180723074058 73 338 3.0 6.0 0.00 0.00 0.00 96 1016.2
20180723073604 73 182 2.0 6.0 0.00 0.00 0.00 96 1016.1
20180723073107 73 79 2.0 9.0 0.00 0.00 0.00 96 1016.1
20180723072616 73 69 2.0 9.0 0.00 0.00 0.00 96 1016.0
20180723072058 73 197 2.0 6.0 0.00 0.00 0.00 96 1016.1
20180723071605 73 290 2.0 6.0 0.00 0.00 0.00 96 1016.0
20180723071107 73 346 2.0 6.0 0.00 0.00 0.00 95 1016.1
20180723070554 73 98 2.0 5.0 0.00 0.00 0.00 95 1016.1
20180723070058 73 248 2.0 5.0 0.00 0.00 0.00 95 1016.2
20180723065606 73 355 2.0 7.0 0.00 0.00 0.00 95 1016.2
20180723065111 73 67 2.0 7.0 0.00 0.00 0.00 95 1016.3
20180723064600 73 87 2.0 6.0 0.00 0.00 0.00 95 1016.3
20180723064105 73 330 1.0 3.0 0.00 0.00 0.00 95 1016.4
20180723063554 73 107 1.0 6.0 0.00 0.00 0.00 95 1016.4
20180723063100 73 90 1.0 8.0 0.00 0.00 0.00 95 1016.4
20180723062607 73 169 2.0 8.0 0.00 0.00 0.00 95 1016.4
20180723062054 73 244 2.0 8.0 0.00 0.00 0.00 95 1016.5
20180723061602 73 229 1.0 8.0 0.00 0.00 0.00 95 1016.5
20180723061106 73 163 1.0 8.0 0.00 0.00 0.00 95 1016.6
20180723060554 73 300 1.0 7.0 0.00 0.00 0.00 95 1016.5
20180723060056 73 154 2.0 7.0 0.00 0.00 0.00 95 1016.5
20180723055604 73 323 2.0 5.0 0.00 0.00 0.00 95 1016.5
20180723055105 73 225 2.0 5.0 0.00 0.00 0.00 95 1016.6
20180723054555 73 337 1.0 7.0 0.00 0.00 0.00 95 1016.6
20180723054100 73 140 1.0 7.0 0.00 0.00 0.00 95 1016.6
20180723053604 73 275 1.0 7.0 0.00 0.00 0.00 95 1016.8
20180723053107 73 275 2.0 7.0 0.00 0.00 0.00 95 1016.8
20180723052553 73 256 1.0 8.0 0.00 0.00 0.00 95 1016.8
20180723052112 72 35 2.0 8.0 0.00 0.00 0.00 95 1016.7
20180723051558 72 138 2.0 5.0 0.00 0.00 0.00 95 1016.7
20180723051101 72 119 1.0 9.0 0.00 0.00 0.00 95 1016.7
20180723050607 72 238 2.0 9.0 0.00 0.00 0.00 95 1016.7
20180723050106 72 223 2.0 9.0 0.00 0.00 0.00 95 1016.7
20180723045552 72 100 1.0 5.0 0.00 0.00 0.00 95 1016.7
20180723045057 72 212 2.0 5.0 0.00 0.00 0.00 95 1016.7
20180723044603 72 178 1.0 4.0 0.00 0.00 0.00 95 1016.6
20180723044108 72 306 1.0 8.0 0.00 0.00 0.00 95 1016.7
20180723043552 72 126 2.0 9.0 0.00 0.00 0.00 95 1016.6
20180723043058 72 311 2.0 10.0 0.00 0.00 0.00 95 1016.6
20180723042605 72 155 2.0 10.0 0.00 0.00 0.00 95 1016.6
20180723042109 72 330 3.0 10.0 0.00 0.00 0.00 95 1016.7
20180723041615 72 82 2.0 10.0 0.00 0.00 0.00 95 1016.5
20180723041057 72 269 2.0 6.0 0.00 0.00 0.00 95 1016.6
20180723040604 72 285 2.0 12.0 0.00 0.00 0.00 94 1016.5
20180723040106 72 207 1.0 12.0 0.00 0.00 0.00 94 1016.4
20180723035612 72 191 2.0 10.0 0.00 0.00 0.00 94 1016.4
20180723035055 72 82 1.0 8.0 0.00 0.00 0.00 94 1016.3
20180723034603 72 88 2.0 8.0 0.00 0.00 0.00 94 1016.3
20180723034105 72 291 2.0 6.0 0.00 0.00 0.00 94 1016.3
20180723033615 72 308 1.0 4.0 0.00 0.00 0.00 94 1016.4
20180723033058 72 262 1.0 4.0 0.00 0.00 0.00 94 1016.2
20180723032602 72 286 0.0 4.0 0.00 0.00 0.00 94 1016.2
20180723032107 72 240 0.0 3.0 0.00 0.00 0.00 94 1016.2
20180723031611 72 244 1.0 2.0 0.00 0.00 0.00 94 1016.0
20180723031056 72 120 0.0 2.0 0.00 0.00 0.00 94 1016.1
20180723030604 72 118 0.0 6.0 0.00 0.00 0.00 94 1016.1
20180723030109 72 200 1.0 6.0 0.00 0.00 0.00 94 1016.2
20180723025556 72 317 1.0 8.0 0.00 0.00 0.00 94 1016.2
20180723025100 72 5 2.0 8.0 0.00 0.00 0.00 94 1016.2
20180723024607 72 118 1.0 7.0 0.00 0.00 0.00 94 1016.1
20180723024112 72 207 1.0 7.0 0.00 0.00 0.00 94 1016.2
20180723023558 72 52 2.0 3.0 0.00 0.00 0.00 94 1016.1
20180723023102 72 123 0.0 5.0 0.00 0.00 0.00 94 1016.2
20180723022613 72 147 1.0 9.0 0.00 0.00 0.00 94 1016.2
20180723022057 72 32 2.0 9.0 0.00 0.00 0.00 94 1016.2
20180723021604 72 318 1.0 4.0 0.00 0.00 0.00 94 1016.1
20180723021107 72 63 2.0 4.0 0.00 0.00 0.00 93 1016.1
20180723020601 72 26 1.0 3.0 0.00 0.00 0.00 93 1016.2
20180723020106 72 343 1.0 4.0 0.00 0.00 0.00 93 1016.2
20180723015613 72 88 1.0 8.0 0.00 0.00 0.00 93 1016.2
20180723015057 72 152 2.0 8.0 0.00 0.00 0.00 93 1016.2
20180723014605 72 84 2.0 5.0 0.00 0.00 0.00 93 1016.2
20180723014110 72 36 2.0 6.0 0.00 0.00 0.00 93 1016.1
20180723013559 72 30 2.0 9.0 0.00 0.00 0.00 93 1016.1
20180723013103 72 139 1.0 9.0 0.00 0.00 0.00 93 1016.0
20180723012610 72 186 2.0 5.0 0.00 0.00 0.00 93 1015.9
20180723012052 72 59 2.0 5.0 0.00 0.00 0.00 93 1015.8
20180723011601 71 186 1.0 4.0 0.00 0.00 0.00 93 1015.8
20180723011104 71 121 1.0 4.0 0.00 0.00 0.00 93 1015.8
20180723010614 71 311 1.0 7.0 0.00 0.00 0.00 93 1015.8
20180723010053 71 79 2.0 7.0 0.00 0.00 0.00 93 1015.6
20180723005601 71 42 3.0 8.0 0.00 0.00 0.00 93 1015.6
20180723005106 71 121 2.0 8.0 0.00 0.00 0.00 92 1015.6
20180723004553 71 51 1.0 4.0 0.00 0.00 0.00 92 1015.5
20180723004059 71 30 2.0 4.0 0.00 0.00 0.00 92 1015.5
20180723003607 71 317 1.0 4.0 0.00 0.00 0.00 92 1015.5
20180723003053 71 57 3.0 4.0 0.00 0.00 0.00 92 1015.4
20180723002602 71 59 2.0 5.0 0.00 0.00 0.00 92 1015.4
20180723002103 71 11 1.0 6.0 0.00 0.00 0.00 92 1015.5
20180723001612 71 21 2.0 9.0 0.00 0.00 0.00 92 1015.5
20180723001057 71 46 3.0 9.0 0.00 0.00 0.00 92 1015.5
20180723000605 71 64 2.0 4.0 0.00 0.00 0.00 92 1015.5
20180723000111 71 44 2.0 3.0 0.00 0.00 0.00 92 1015.4
20180722235559 71 50 1.0 3.0 0.00 0.00 0.00 92 1015.4
20180722235104 71 360 2.0 3.0 0.00 0.00 0.00 92 1015.4
20180722234552 71 38 1.0 3.0 0.00 0.00 0.00 91 1015.5
20180722234058 71 319 1.0 4.0 0.00 0.00 0.00 91 1015.5
20180722233605 71 57 1.0 4.0 0.00 0.00 0.00 91 1015.4
20180722233112 71 57 2.0 4.0 0.00 0.00 0.00 91 1015.4
20180722232600 71 44 2.0 6.0 0.00 0.00 0.00 91 1015.2
20180722232106 71 61 2.0 6.0 0.00 0.00 0.00 91 1015.3
20180722231554 71 66 2.0 6.0 0.00 0.00 0.00 91 1015.4
20180722231058 71 47 2.0 8.0 0.00 0.00 0.00 91 1015.4
20180722230605 71 93 2.0 8.0 0.00 0.00 0.00 91 1015.5
20180722230110 72 93 3.0 8.0 0.00 0.00 0.00 91 1015.5
20180722225555 72 46 1.0 6.0 0.00 0.00 0.00 91 1015.4
20180722225058 72 57 1.0 6.0 0.00 0.00 0.00 91 1015.2
20180722224604 72 331 2.0 3.0 0.00 0.00 0.00 91 1015.1
20180722224053 73 60 2.0 4.0 0.00 0.00 0.00 91 1014.9
20180722223603 73 336 2.0 4.0 0.00 0.00 0.00 91 1014.9
20180722223103 73 46 2.0 6.0 0.00 0.00 0.00 91 1015.0
20180722222552 74 53 3.0 6.0 0.00 0.00 0.00 91 1014.9
20180722222058 74 253 2.0 7.0 0.00 0.00 0.00 90 1014.9
20180722221605 75 80 3.0 5.0 0.00 0.00 0.00 90 1014.8
20180722221107 75 53 2.0 5.0 0.00 0.00 0.00 90 1014.7
20180722220553 76 35 2.0 6.0 0.00 0.00 0.00 89 1014.7
20180722220100 76 86 3.0 6.0 0.00 0.00 0.00 89 1014.8
20180722215606 76 56 2.0 7.0 0.00 0.00 0.00 89 1014.9
20180722215111 76 36 2.0 7.0 0.00 0.00 0.00 89 1014.9
20180722214558 76 67 2.0 9.0 0.00 0.00 0.00 89 1014.8
20180722214104 76 65 3.0 9.0 0.00 0.00 0.00 89 1014.8
20180722213609 77 111 3.0 9.0 0.00 0.00 0.00 89 1014.8
20180722213112 77 76 2.0 10.0 0.00 0.00 0.00 89 1014.8
20180722212558 77 5 3.0 10.0 0.00 0.00 0.00 88 1014.8
20180722212101 77 44 2.0 10.0 0.00 0.00 0.00 88 1015.0
20180722211605 78 128 4.0 10.0 0.00 0.00 0.00 88 1014.8
20180722211111 78 243 3.0 10.0 0.00 0.00 0.00 88 1014.7
20180722210557 78 106 2.0 5.0 0.00 0.00 0.00 88 1014.7
20180722210058 78 346 2.0 7.0 0.00 0.00 0.00 89 1014.7
20180722205608 77 186 3.0 7.0 0.00 0.00 0.00 88 1014.6
20180722205112 78 43 2.0 6.0 0.00 0.00 0.00 89 1014.7
20180722204559 77 306 2.0 8.0 0.00 0.00 0.00 89 1014.6
20180722204100 77 344 1.0 8.0 0.00 0.00 0.00 90 1014.7
20180722203608 76 355 3.0 8.0 0.00 0.00 0.00 90 1014.7
20180722203054 76 66 2.0 6.0 0.00 0.00 0.00 90 1014.6
20180722202602 76 89 3.0 6.0 0.00 0.00 0.00 90 1014.6
20180722202104 76 316 2.0 5.0 0.00 0.00 0.00 90 1014.6
20180722201614 76 95 3.0 8.0 0.00 0.00 0.00 91 1014.5
20180722201057 76 71 3.0 8.0 0.00 0.00 0.00 90 1014.4
20180722200603 76 67 2.0 7.0 0.00 0.00 0.00 91 1014.4
20180722200107 76 183 3.0 7.0 0.00 0.00 0.00 91 1014.3
20180722195552 76 241 2.0 4.0 0.00 0.00 0.00 91 1014.2
20180722195058 76 119 2.0 4.0 0.00 0.00 0.00 91 1014.3
20180722194605 76 27 2.0 5.0 0.00 0.00 0.00 91 1014.3
20180722194110 76 229 2.0 7.0 0.00 0.00 0.00 91 1014.3
20180722193557 76 84 2.0 7.0 0.00 0.00 0.00 91 1014.3
20180722193103 76 49 2.0 4.0 0.00 0.00 0.00 91 1014.3
20180722192611 76 51 1.0 5.0 0.00 0.00 0.00 91 1014.4
20180722192056 76 116 2.0 5.0 0.00 0.00 0.00 91 1014.4
20180722191605 76 69 2.0 6.0 0.00 0.00 0.00 91 1014.4
20180722191111 76 23 2.0 6.0 0.00 0.00 0.00 90 1014.4
20180722190556 76 277 1.0 8.0 0.00 0.00 0.00 90 1014.3
20180722190101 76 14 2.0 8.0 0.00 0.00 0.00 90 1014.3
20180722185605 76 101 2.0 7.0 0.00 0.00 0.00 90 1014.3
20180722185054 77 117 3.0 8.0 0.00 0.00 0.00 90 1014.3
20180722184600 77 5 3.0 8.0 0.00 0.00 0.00 90 1014.3
20180722184104 77 155 2.0 8.0 0.00 0.00 0.00 90 1014.2
20180722183613 77 60 3.0 7.0 0.00 0.00 0.00 90 1014.3
20180722183053 78 51 1.0 4.0 0.00 0.00 0.00 90 1014.1
20180722182600 78 13 1.0 11.0 0.00 0.00 0.00 90 1014.1
20180722182103 78 262 2.0 11.0 0.00 0.00 0.00 90 1014.2
20180722181618 78 80 3.0 9.0 0.00 0.00 0.00 90 1014.1
20180722181110 78 26 3.0 9.0 0.00 0.00 0.00 90 1014.1
20180722180557 78 131 3.0 9.0 0.00 0.00 0.00 90 1014.1
20180722180102 78 13 3.0 12.0 0.00 0.00 0.00 90 1014.1
20180722175608 78 102 2.0 12.0 0.00 0.00 0.00 90 1014.2
20180722175108 77 338 3.0 10.0 0.00 0.00 0.00 90 1014.2
20180722174555 77 187 2.0 10.0 0.00 0.00 0.00 91 1014.2
20180722174100 77 344 3.0 8.0 0.00 0.00 0.00 90 1014.3
20180722173606 77 161 2.0 8.0 0.00 0.00 0.00 90 1014.2
20180722173109 76 212 2.0 14.0 0.00 0.00 0.00 90 1014.2
20180722172551 76 9 2.0 14.0 0.00 0.00 0.00 90 1014.2